Location: Koussan�
(15.2012°N, 12.5548°W)
Time: 17:58:11
(UTC+00:00)

ATLAS CENTAUR R/B - Pass Details

Date: 20 October 2020
Orbit: 478 x 667 km, 64.7° (Epoch: 22 November)

Event Time Altitude Azimuth Distance (km) Brightness Sun altitude
Rises 19:20:00 0° 317° (NW) 2,617 5.3 -13.5°
Reaches altitude 10° 19:22:25 10° 302° (WNW) 1,760 4.6 -14.1°
Maximum altitude 19:25:36 24° 248° (WSW) 1,161 3.9 -14.9°
Drops below altitude 10° 19:28:56 10° 195° (SSW) 1,849 4.3 -15.7°
Sets 19:31:33 0° 181° (S) 2,784 5.0 -16.3°
